Location: Duncanville
(32.6518°N, 96.9083°W)
Time: 11:23:28
(UTC+00:00)

Cosmos 372 Rocket - Pass Details

Date: 11 February 2026
Orbit: 732 x 763 km, 74.1° (Epoch: 7 March)

Event Time Altitude Azimuth Distance (km) Brightness Sun altitude
Rises 12:44:41 0° 196° (SSW) 3,141 7.1 -6.9°
Reaches altitude 10° 12:47:00 10° 196° (SSW) 2,224 6.4 -6.4°
Maximum altitude 12:52:02 87° 286° (WNW) 740 3.9 -5.4°
Drops below altitude 10° 12:57:08 10° 16° (NNE) 2,248 6.5 -4.3°
Sets 12:59:30 0° 17° (NNE) 3,178 7.2 -3.8°
